Time,TemperatureF,DewpointF,PressureIn,WindDirection,WindDirectionDegrees,WindSpeedMPH,WindSpeedGustMPH,Humidity,HourlyPrecipIn,Conditions,Clouds,dailyrainin,SolarRadiationWatts/m^2,SoftwareType,DateUTC
2013-10-29 00:04:00,58.0,54.0,29.38,South,181,1.0,3.0,86,0.00,,,0.00,0.000000,,2013-10-29 04:04:00,
2013-10-29 00:10:00,55.0,52.0,29.38,North,358,2.0,3.0,91,0.00,,,0.00,0.000000,,2013-10-29 04:10:00,
2013-10-29 00:44:00,55.0,52.0,29.38,North,358,2.0,3.0,91,0.00,,,0.00,0.000000,,2013-10-29 04:44:00,
2013-10-29 00:58:00,55.0,52.0,29.38,North,358,2.0,3.0,91,0.00,,,0.00,0.000000,,2013-10-29 04:58:00,
2013-10-29 01:04:00,55.0,52.0,29.38,North,358,2.0,3.0,91,0.00,,,0.00,0.000000,,2013-10-29 05:04:00,
2013-10-29 01:10:00,55.0,52.0,29.38,NNW,330,2.0,4.0,91,0.00,,,0.00,0.000000,,2013-10-29 05:10:00,
2013-10-29 01:45:00,55.0,52.0,29.38,NNW,330,2.0,4.0,91,0.00,,,0.00,0.000000,,2013-10-29 05:45:00,
2013-10-29 01:52:00,55.0,52.0,29.38,NNW,330,2.0,4.0,91,0.00,,,0.00,0.000000,,2013-10-29 05:52:00,
2013-10-29 02:07:00,55.0,52.0,29.38,NNW,330,2.0,4.0,91,0.00,,,0.00,0.000000,,2013-10-29 06:07:00,
2013-10-29 02:10:00,55.0,52.0,29.37,SE,135,1.0,4.0,90,0.00,,,-99.99,0.000000,,2013-10-29 06:10:00,
2013-10-29 02:44:00,55.0,52.0,29.37,SE,135,1.0,4.0,90,0.00,,,-99.99,0.000000,,2013-10-29 06:44:00,
2013-10-29 02:53:00,55.0,52.0,29.37,SE,135,1.0,4.0,90,0.00,,,-99.99,0.000000,,2013-10-29 06:53:00,
2013-10-29 03:01:00,55.0,52.0,29.37,SE,135,1.0,4.0,90,0.00,,,-99.99,0.000000,,2013-10-29 07:01:00,
2013-10-29 03:10:00,54.0,53.0,29.38,NW,311,0.0,4.0,95,0.00,,,0.00,0.000000,,2013-10-29 07:10:00,
2013-10-29 03:44:00,54.0,53.0,29.38,NW,311,0.0,4.0,95,0.00,,,0.00,0.000000,,2013-10-29 07:44:00,
2013-10-29 03:55:00,54.0,53.0,29.38,NW,311,0.0,4.0,95,0.00,,,0.00,0.000000,,2013-10-29 07:55:00,
2013-10-29 04:05:00,54.0,53.0,29.38,NW,311,0.0,4.0,95,0.00,,,0.00,0.000000,,2013-10-29 08:05:00,
2013-10-29 04:10:00,52.0,51.0,29.39,NW,321,2.0,2.0,95,0.00,,,0.00,0.000000,,2013-10-29 08:10:00,
2013-10-29 04:42:00,52.0,51.0,29.39,NW,321,2.0,2.0,95,0.00,,,0.00,0.000000,,2013-10-29 08:42:00,
2013-10-29 04:52:00,52.0,51.0,29.39,NW,321,2.0,2.0,95,0.00,,,0.00,0.000000,,2013-10-29 08:52:00,
2013-10-29 05:02:00,52.0,51.0,29.39,NW,321,2.0,2.0,95,0.00,,,0.00,0.000000,,2013-10-29 09:02:00,
2013-10-29 05:10:00,49.0,48.0,29.40,NNW,343,3.0,5.0,95,0.00,,,0.00,0.000000,,2013-10-29 09:10:00,
2013-10-29 05:43:00,49.0,48.0,29.40,NNW,343,3.0,5.0,95,0.00,,,0.00,0.000000,,2013-10-29 09:43:00,
2013-10-29 05:53:00,49.0,48.0,29.40,NNW,343,3.0,5.0,95,0.00,,,0.00,0.000000,,2013-10-29 09:53:00,
2013-10-29 06:03:00,49.0,48.0,29.40,NNW,343,3.0,5.0,95,0.00,,,0.00,0.000000,,2013-10-29 10:03:00,
2013-10-29 06:10:00,48.0,47.0,29.42,NW,324,2.0,5.0,96,0.00,,,0.00,0.000000,,2013-10-29 10:10:00,
2013-10-29 06:42:00,48.0,47.0,29.42,NW,324,2.0,5.0,96,0.00,,,0.00,0.000000,,2013-10-29 10:42:00,
2013-10-29 06:53:00,48.0,47.0,29.42,NW,324,2.0,5.0,96,0.00,,,0.00,0.000000,,2013-10-29 10:53:00,
2013-10-29 07:03:00,48.0,47.0,29.42,NW,324,2.0,5.0,96,0.00,,,0.00,0.000000,,2013-10-29 11:03:00,
2013-10-29 07:10:00,49.0,48.0,29.42,NNW,334,2.0,6.0,96,0.00,,,0.00,0.000000,,2013-10-29 11:10:00,
2013-10-29 07:42:00,49.0,48.0,29.42,NNW,334,2.0,6.0,96,0.00,,,0.00,0.000000,,2013-10-29 11:42:00,
2013-10-29 07:52:00,49.0,48.0,29.42,NNW,334,2.0,6.0,96,0.00,,,0.00,0.000000,,2013-10-29 11:52:00,
2013-10-29 08:01:00,49.0,48.0,29.42,NNW,334,2.0,6.0,96,0.00,,,0.00,0.000000,,2013-10-29 12:01:00,
2013-10-29 08:10:00,48.0,47.0,29.43,SW,234,4.0,6.0,96,0.00,,,0.00,0.000000,,2013-10-29 12:10:00,
2013-10-29 08:52:00,48.0,47.0,29.43,SW,234,4.0,6.0,96,0.00,,,0.00,0.000000,,2013-10-29 12:52:00,
2013-10-29 09:02:00,48.0,47.0,29.43,SW,234,4.0,6.0,96,0.00,,,0.00,0.000000,,2013-10-29 13:02:00,
2013-10-29 09:10:00,56.0,55.0,29.44,ESE,113,5.0,48.0,95,0.00,,,0.00,2.000000,,2013-10-29 13:10:00,
2013-10-29 10:10:00,63.0,51.0,29.46,WNW,299,1.0,14.0,65,0.00,,,0.00,69.000000,,2013-10-29 14:10:00,
2013-10-29 14:10:00,75.0,50.0,29.40,WSW,254,3.0,8.0,41,-99.99,,,0.00,706.000000,,2013-10-29 18:10:00,
2013-10-29 14:42:00,75.0,50.0,29.40,WSW,254,3.0,8.0,41,-99.99,,,0.00,706.000000,,2013-10-29 18:42:00,
2013-10-29 14:52:00,75.0,50.0,29.40,WSW,254,3.0,8.0,41,-99.99,,,0.00,706.000000,,2013-10-29 18:52:00,
2013-10-29 15:02:00,75.0,50.0,29.40,WSW,254,3.0,8.0,41,-99.99,,,0.00,706.000000,,2013-10-29 19:02:00,
2013-10-29 17:10:00,77.0,52.0,29.36,SE,133,4.0,10.0,42,-99.99,,,0.00,395.000000,,2013-10-29 21:10:00,
2013-10-29 17:43:00,77.0,52.0,29.36,SE,133,4.0,10.0,42,-99.99,,,0.00,395.000000,,2013-10-29 21:43:00,
2013-10-29 18:10:00,66.0,50.0,29.37,ESE,111,1.0,10.0,57,-99.99,,,0.00,398.000000,,2013-10-29 22:10:00,
2013-10-29 18:43:00,66.0,50.0,29.37,ESE,111,1.0,10.0,57,-99.99,,,0.00,398.000000,,2013-10-29 22:43:00,
2013-10-29 18:53:00,66.0,50.0,29.37,ESE,111,1.0,10.0,57,-99.99,,,0.00,398.000000,,2013-10-29 22:53:00,
2013-10-29 19:03:00,66.0,50.0,29.37,ESE,111,1.0,10.0,57,-99.99,,,0.00,398.000000,,2013-10-29 23:03:00,
2013-10-29 19:10:00,60.0,50.0,29.38,East,95,1.0,4.0,70,0.00,,,0.00,44.000000,,2013-10-29 23:10:00,
2013-10-29 19:43:00,60.0,50.0,29.38,East,95,1.0,4.0,70,0.00,,,0.00,44.000000,,2013-10-29 23:43:00,
2013-10-29 19:53:00,60.0,50.0,29.38,East,95,1.0,4.0,70,0.00,,,0.00,44.000000,,2013-10-29 23:53:00,
2013-10-29 20:02:00,60.0,50.0,29.38,East,95,1.0,4.0,70,0.00,,,0.00,44.000000,,2013-10-30 00:02:00,
2013-10-29 20:10:00,57.0,51.0,29.40,SE,128,1.0,5.0,79,0.00,,,-99.99,8.000000,,2013-10-30 00:10:00,
2013-10-29 20:42:00,57.0,51.0,29.40,SE,128,1.0,5.0,79,0.00,,,-99.99,8.000000,,2013-10-30 00:42:00,
2013-10-29 20:52:00,57.0,51.0,29.40,SE,128,1.0,5.0,79,0.00,,,-99.99,8.000000,,2013-10-30 00:52:00,
2013-10-29 21:01:00,57.0,51.0,29.40,SE,128,1.0,5.0,79,0.00,,,-99.99,8.000000,,2013-10-30 01:01:00,
2013-10-29 21:10:00,56.0,51.0,29.40,WNW,296,2.0,3.0,84,0.00,,,-99.99,0.000000,,2013-10-30 01:10:00,
2013-10-29 21:42:00,56.0,51.0,29.40,WNW,296,2.0,3.0,84,0.00,,,-99.99,0.000000,,2013-10-30 01:42:00,
2013-10-29 21:52:00,56.0,51.0,29.40,WNW,296,2.0,3.0,84,0.00,,,-99.99,0.000000,,2013-10-30 01:52:00,
2013-10-29 22:02:00,56.0,51.0,29.40,WNW,296,2.0,3.0,84,0.00,,,-99.99,0.000000,,2013-10-30 02:02:00,
2013-10-29 22:10:00,54.0,50.0,29.40,ENE,57,1.0,4.0,86,0.00,,,0.00,0.000000,,2013-10-30 02:10:00,
2013-10-29 22:42:00,54.0,50.0,29.40,ENE,57,1.0,4.0,86,0.00,,,0.00,0.000000,,2013-10-30 02:42:00,
2013-10-29 22:52:00,54.0,50.0,29.40,ENE,57,1.0,4.0,86,0.00,,,0.00,0.000000,,2013-10-30 02:52:00,
2013-10-29 23:02:00,54.0,50.0,29.40,ENE,57,1.0,4.0,86,0.00,,,0.00,0.000000,,2013-10-30 03:02:00,
2013-10-29 23:10:00,55.0,52.0,29.41,North,6,0.0,2.0,88,0.00,,,0.00,0.000000,,2013-10-30 03:10:00,
2013-10-29 23:44:00,55.0,52.0,29.41,North,6,0.0,2.0,88,0.00,,,0.00,0.000000,,2013-10-30 03:44:00,
2013-10-29 23:54:00,55.0,52.0,29.41,North,6,0.0,2.0,88,0.00,,,0.00,0.000000,,2013-10-30 03:54:00,